Location: Newark
(52.7142°N, 10.5097°E)
Time: 14:27:27
(UTC+00:00)

Envisat - Visible Passes

Search period start: 17 January 2020 00:00
Search period end: 27 January 2020 00:00
Orbit: 764 x 766 km, 98.1° (Epoch: 17 January)

Date Brightness Start Highest point End Pass type
(mag) Time Alt. Az. Time Alt. Az. Time Alt. Az.
17 Jan 6.2 04:31:01 10° ENE 04:33:11 13° E 04:35:19 10° ESE visible
17 Jan 3.3 06:08:01 10° NNE 06:13:08 73° ESE 06:18:13 10° S visible
17 Jan 4.0 17:28:47 10° S 17:33:42 49° W 17:38:40 10° NNW visible
18 Jan 4.6 05:31:26 10° NNE 05:36:11 38° E 05:40:54 10° SSE visible
18 Jan 3.0 16:51:45 10° SSE 16:56:51 87° ENE 17:01:58 10° NNW visible
18 Jan 5.9 18:33:23 10° SW 18:36:35 17° W 18:39:47 10° NW visible
19 Jan 5.7 04:55:19 10° NE 04:59:03 20° E 05:02:46 10° SE visible
19 Jan 3.0 06:33:32 10° NNE 06:38:37 72° WNW 06:43:41 10° SSW visible
19 Jan 3.3 16:15:19 10° SE 16:20:10 46° ENE 16:25:02 10° N visible
19 Jan 4.9 17:54:53 10° SSW 17:59:23 31° W 18:03:54 10° NNW visible
20 Jan 3.7 05:56:45 10° NNE 06:01:49 60° ESE 06:06:50 10° S visible
20 Jan 3.6 17:17:21 10° S 17:22:22 60° WSW 17:27:25 10° NNW visible
21 Jan 5.0 05:20:17 10° NNE 05:24:49 31° E 05:29:19 10° SSE visible
21 Jan 2.9 16:40:30 10° SSE 16:45:34 73° ENE 16:50:39 10° NNW visible
21 Jan 5.6 18:21:26 10° SW 18:25:08 20° W 18:28:52 10° NW visible
22 Jan 6.0 04:44:23 10° NE 04:47:37 17° E 04:50:49 10° SE visible
22 Jan 3.0 06:22:13 10° NNE 06:27:20 87° WNW 06:32:26 10° SSW visible
22 Jan 4.5 17:43:17 10° SSW 17:48:00 38° W 17:52:45 10° NNW visible
23 Jan 4.1 05:45:31 10° NNE 05:50:29 49° E 05:55:24 10° S visible
23 Jan 3.3 17:05:59 10° S 17:11:03 73° WSW 17:16:10 10° NNW visible
23 Jan 6.2 18:48:53 10° WSW 18:51:00 12° W 18:53:09 10° WNW visible
24 Jan 5.3 05:09:09 10° NE 05:13:25 26° E 05:17:39 10° SSE visible
24 Jan 3.0 16:29:19 10° SSE 16:34:18 60° ENE 16:39:19 10° N visible
24 Jan 5.4 18:09:37 10° SW 18:13:43 24° W 18:17:51 10° NW visible
25 Jan 6.2 04:33:38 10° NE 04:36:09 14° E 04:38:40 10° ESE visible
25 Jan 3.2 06:10:55 10° NNE 06:16:03 79° ESE 06:21:08 10° SSW visible
25 Jan 4.2 17:31:46 10° S 17:36:38 46° W 17:41:32 10° NNW visible
26 Jan 4.5 05:34:18 10° NNE 05:39:07 41° E 05:43:54 10° SSE visible
26 Jan 3.1 16:54:39 10° SSE 16:59:45 88° WSW 17:04:53 10° NNW visible
26 Jan 6.0 18:36:35 10° WSW 18:39:32 15° W 18:42:31 10° NW visible
